SWR1488 LSZH-LKPR

Flight info

Callsign SWR1488
Flight time N/A
Altitude 41000
Route DEGES Z2 XEBIX N871 NENUM Z39 DOLUP DCT APRAQ
Aircraft A359/H-SDE2E3GHIJ3J4J5LM1ORWXY/LB1D1

Departure

Time N/A
Airport Zürich Airport (LSZH)

Arrival

Time 2026-04-30 18:03
Airport Václav Havel Airport Prague (LKPR)
Time Latitude Longitude Altitude Speed Heading
2026-04-30 17:39 48.54002 12.94498 41379 ft 451 kts 34°
2026-04-30 17:42 48.80973 13.18102 41024 ft 444 kts 29°
2026-04-30 17:42 48.88988 13.24733 39533 ft 430 kts 24°
2026-04-30 17:43 48.94437 13.28317 38268 ft 423 kts 23°
2026-04-30 17:44 49.02504 13.33438 36044 ft 416 kts 25°
2026-04-30 17:44 49.10438 13.38630 33677 ft 409 kts 31°
2026-04-30 17:46 49.21440 13.52374 28263 ft 412 kts 42°
2026-04-30 17:47 49.29863 13.63879 25477 ft 404 kts 42°
2026-04-30 17:48 49.37557 13.74434 25395 ft 403 kts 42°
2026-04-30 17:48 49.43835 13.83083 25405 ft 405 kts 42°
2026-04-30 17:49 49.52065 13.94466 23428 ft 396 kts 42°
2026-04-30 17:50 49.59355 14.06856 19894 ft 384 kts 52°
2026-04-30 17:51 49.64048 14.16666 17232 ft 375 kts 53°
2026-04-30 17:52 49.68595 14.26263 14948 ft 358 kts 53°
2026-04-30 17:53 49.75238 14.39965 13382 ft 277 kts 44°
2026-04-30 17:54 49.81969 14.45176 9793 ft 273 kts
2026-04-30 17:55 49.88517 14.50147 6345 ft 256 kts 31°
2026-04-30 17:56 49.94227 14.54893 4458 ft 210 kts
2026-04-30 17:57 49.97623 14.51728 3999 ft 179 kts 309°
2026-04-30 17:58 49.99611 14.47600 4005 ft 145 kts 312°
2026-04-30 17:59 50.01886 14.42954 3651 ft 128 kts 312°
2026-04-30 18:00 50.03997 14.38594 2957 ft 125 kts 312°
2026-04-30 18:00 50.05562 14.35364 2450 ft 125 kts 312°
2026-04-30 18:01 50.06605 14.33208 2106 ft 125 kts 312°
2026-04-30 18:02 50.08167 14.29978 1575 ft 123 kts 311°
2026-04-30 18:02 50.09679 14.26846 1218 ft 100 kts 307°
2026-04-30 18:03 50.10251 14.25699 1192 ft 14 kts 311°